Regional Weather Roundup
Issued by NWS Jackson, KY

Home | Current Version | Previous Version | Graphics & Text | Print | Product List | Glossary On
Versions: 1 2 3 4 5 6 7 8 9 10 11 12 13 14 15 16 17 18 19 20 21 22 23 24 25 26 27
000
ASUS43 KJKL 200510
RWRJKL

EAST KENTUCKY HOURLY WEATHER ROUNDUP
NATIONAL WEATHER SERVICE JACKSON KY
100 AM EDT FRI APR 20 2018

NOTE: "FAIR" INDICATES FEW OR NO CLOUDS BELOW 12,000 FEET WITH
NO SIGNIFICANT WEATHER AND/OR OBSTRUCTIONS TO VISIBILITY.

* THESE REPORTS ARE NOT UNDER NWS QUALITY CONTROL AND MAY NOT
  REPORT WEATHER SUCH AS PRECIPITATION AND FOG.

KYZ079-080-083-085-087-088-110-112-115-119-120-200600
...EASTERN KENTUCKY...

CITY           SKY/WX    TMP DP  RH WIND       PRES   REMARKS
JACKSON          N/A     37  29  72 SW3       30.32S
LONDON           N/A     34  31  88 CALM      30.34S
SOMERSET*        N/A     34  32  93 CALM      30.36S
MONTICELLO*      N/A     29  27  92 CALM      30.37S
WILLIAMSBURG*    N/A     32  32 100 CALM      30.35S
MIDDLESBORO*     N/A     34  32  92 CALM      30.36S
HARLAN APT*      N/A     33  30  86 CALM      30.33S
PIKE CO APT*     N/A     38  29  69 SW3       30.31S
BIG SANDY APT*   N/A     38  30  71 SW5       30.32R WCI  35
MOREHEAD APT*    N/A     39  30  70 CALM      30.34R
ASHLAND*         N/A     36  33  89 CALM      30.32R
$$

KYZ035-036-041-042-044-050-067-078-099-200600
...CENTRAL KENTUCKY...

CITY           SKY/WX    TMP DP  RH WIND       PRES   REMARKS
MT STERLING*     N/A     34  32  93 SW5       30.34S WCI  30
FLEMING/MASON*   N/A     40  29  65 NW7       30.34R
DANVILLE*        N/A     32  32 100 CALM      30.35S
LEXINGTON        N/A     40  29  64 W3        30.34R
FRANKFORT        N/A     37  30  75 N3        30.34R
LOUISVILLE       N/A     46  29  51 N9        30.36R
GLASGOW*         N/A     34  32  93 CALM      30.36S
BOWLING GREEN    N/A     40  34  79 CALM      30.36F
$$

KYZ091>093-OHZ055-061-077-WVZ005-015-034-035-042-200600
...SOUTHERN OHIO/WEST VIRGINIA...

CITY           SKY/WX    TMP DP  RH WIND       PRES   REMARKS
COVINGTON        N/A     42  26  53 N9        30.34R
COLUMBUS         N/A     42  30  62 N8        30.31R
DAYTON           N/A     39  32  76 NW13      30.35R WCI  31
WILMINGTON       N/A     44  32  62 NW8       30.32R
HUNTINGTON       N/A    N/A N/A N/A MISG      30.30R
CHARLESTON       N/A     37  31  78 SW3       30.28S
PINEVILLE*       N/A     31  29  93 MISG        N/A
BECKLEY          N/A     33  25  72 W7        30.23F WCI  27
BLUEFIELD        N/A     32  24  72 W6        30.25S WCI  26
LOGAN CO APT*    N/A     37  28  70 CALM      30.28S
$$

VAZ002-007-008-TNZ017-027-036-066-071-200600
...SOUTHWEST VIRGINIA/EAST TENNESSEE...

CITY           SKY/WX    TMP DP  RH WIND       PRES   REMARKS
WISE*            N/A     34  30  86 W5        30.30S WCI  30
JONESVILLE*      N/A     32  30  93 CALM      30.36S
ABINGDON*        N/A     40  29  65 CALM      30.30S
BRISTOL          N/A     34  30  85 CALM      30.32S
MORRISTOWN*    CLEAR     41  28  60 CALM      30.33S
SEVIERVILLE*   CLEAR     37  30  75 CALM      30.34S
KNOXVILLE        N/A     38  30  73 E3        30.33R
LAFOLLETTE*    CLEAR     34  32  93 CALM      30.37S
OAK RIDGE        N/A     42  31  64 E5        30.35S
CROSSVILLE       N/A     36  27  69 NE7       30.31F WCI  30
NASHVILLE        N/A     42  32  67 N6        30.35F
$$

...KEY TO REMARKS...
VSB - VISIBILITY IN MILES
WCI - WIND CHILL INDEX
HX  - HEAT INDEX

$$




USA.gov is the U.S. government's official web portal to all federal, state and local government web resources and services.